Regional Weather Roundup
Issued by NWS

Home | Current Version | Previous Version | Graphics & Text | Print | Product List | Glossary On
Versions: 1 2 3 4 5 6 7 8 9 10 11 12 13 14 15 16 17 18 19 20 21 22 23 24 25 26 27 28 29 30 31 32 33 34 35 36 37 38 39 40 41 42 43 44 45 46 47 48 49 50
000
ASUS45 KTFX 052304
RWRMT
MONTANA HOURLY WEATHER ROUNDUP
NATIONAL WEATHER SERVICE GREAT FALLS MT
404 PM MST THU MAR 5 2015

NOTE: "FAIR" INDICATES FEW OR NO CLOUDS BELOW 12000 FEET WITH NO
SIGNIFICANT WEATHER AND/OR OBSTRUCTIONS TO VISIBILITY.

* THESE STATIONS ARE NOT UNDER NWS QUALITY CONTROL. THEY DO NOT
   REPORT WEATHER SUCH AS PRECIPITATION OR FOG.

MTZ001>007-043-060000-
WEST OF THE DIVIDE
CITY           SKY/WX    TMP DP  RH WIND       PRES   REMARKS
KALISPELL      PTSUNNY   41  18  39 W5        30.25F
MISSOULA       PTCLDY    50  12  22 CALM      30.25F
BUTTE          PTSUNNY   45   9  23 NW8       30.20S
MULLAN PASS    PTCLDY    37  12  36 VRB5      30.24R WCI  33
* ANACONDA     PTSUNNY   37  18  46 N14        N/A   WCI  28
* ESSEX        N/A       44   8  23 S3         N/A
* LINCOLN      N/A       42   6  22 SW5G15     N/A
* LOOKOUT PASS N/A       43  15  32 SE5        N/A
* POLSON       N/A       44  12  27 S2G7       N/A
* RONAN APT    PTSUNNY   46  19  34 N/A        N/A
* SEELEY LAKE  N/A       47   9  21 W6G14      N/A
* THOMP F APT  PTCLDY    31  11  43 S6G14      N/A   WCI  25
* YAAK HILL    N/A       49  18  29 W1         N/A
$$

MTZ008-052>055-060000-
SOUTHWEST MONTANA
CITY           SKY/WX    TMP DP  RH WIND       PRES   REMARKS
BOZEMAN        PTCLDY    48  10  21 W6        30.20S
DILLON         CLOUDY    46   9  22 SW15      30.20R
* W YELLOWSTON SUNNY     32  12  43 SW7G16     N/A   WCI  25
* THREE FORKS  PTSUNNY   50   9  19 SW6        N/A
* BOULDER HILL N/A       40   4  22 NE4        N/A
* MONIDA PASS  N/A       29  12  49 SE20       N/A   WCI  16
* RAYNOLDS PAS N/A       33  17  52 S13        N/A   WCI  24
* WHITEHALL    N/A       51   6  16 SW12G22    N/A
* WISE RIVER   N/A       45   3  17 W13G23     N/A
$$

MTZ009>010-012-014-046-048-049-054-060000-
EAST SLOPES AND CENTRAL MONTANA
CITY           SKY/WX    TMP DP  RH WIND       PRES   REMARKS
CUT BANK       PTSUNNY   48  16  28 W23G31    30.05S
GREAT FALLS    CLOUDY    48  12  23 SW23      30.10R
HELENA         CLOUDY    46   9  22 W5        30.18S
* DEARBORN     N/A       45   9  23 SE7G12     N/A
* EAST GLACIER N/A       39  13  34 W19G32     N/A   WCI  29
* MONARCH      N/A       37  11  34 W19        N/A   WCI  27
* PENDROY      N/A       43  20  40 W8         N/A
* ROGERS PASS  N/A       38   7  27 E9G22      N/A   WCI  32
* SWEET GRASS  N/A       44  20  38 NW14G20    N/A
$$

MTZ011-013-016-021-035-040-045-047-050-051-060000-
NORTH CENTRAL MONTANA
CITY           SKY/WX    TMP DP  RH WIND       PRES   REMARKS
HAVRE          CLOUDY    50  18  28 W20       30.05R
LEWISTOWN      CLOUDY    43  23  45 W8        30.09S
* N BAR RANCH  SUNNY     43  16  34 NW7       30.09S
* CHESTER      N/A       49  15  26 NW12G21    N/A
* DENTON       N/A       46  13  26 W20        N/A
* GEYSER       N/A       46  13  26 W25G33     N/A
* JUDITH GAP   N/A       43  13  29 VRB1       N/A
* LOMA         N/A       52  15  23 W13        N/A
$$

MTZ017>020-022>027-061-062-060000-
NORTHEAST MONTANA
CITY           SKY/WX    TMP DP  RH WIND       PRES   REMARKS
GLASGOW        SUNNY     48  16  28 W16       30.02F
GLENDIVE       PTCLDY    45  14  28 NW16G22   30.07S
JORDAN         PTCLDY    48  12  23 NW16      30.05F
SIDNEY         SUNNY     45  16  31 NW15      30.07R
WOLF POINT     PTCLDY    46  18  33 W9        30.04R
* BEAVER HILL  N/A       42  12  29 W21G31     N/A
* CIRCLE       N/A       47  19  33 SW9G15     N/A
* LINDSAY DVD  N/A       43  13  29 W19G24     N/A
* NAVAJO       N/A       40  20  45 W14G21     N/A   WCI  32
* SACO         N/A       50  15  25 W19G24     N/A
$$

MTZ028>042-056>058-060000-
SOUTHCENTRAL AND SOUTHEAST MONTANA
CITY           SKY/WX    TMP DP  RH WIND       PRES   REMARKS
BAKER          SUNNY     45  12  26 NW22G29   30.07R
BILLINGS       CLOUDY    46  16  30 SW15      30.11S
LIVINGSTON     CLOUDY    46  10  23 W17G23    30.15S
MILES CITY     SUNNY     50  14  24 N/A       30.07F
* LAUREL APT   PTSUNNY   45  12  26 S8         N/A
* ROUNDUP APT  CLOUDY    52   7  16 W11G17     N/A
* ALZADA       N/A       43  15  32 W14G19     N/A
* HYSHAM       N/A       49   6  17 W6G11      N/A
* LAME DEER    N/A       42  12  29 W9G19      N/A
* REED POINT   N/A       49  13  23 W13G24     N/A
* ROSCOE HILL  N/A       37   9  31 SE6        N/A   WCI  32
$$

REGIONAL REPORTS...DAKOTAS
CITY           SKY/WX    TMP DP  RH WIND       PRES   REMARKS
WILLISTON      SUNNY     41  18  39 W9        30.02S
DICKINSON      SUNNY     43  10  26 NW18      30.01S
BEACH          SUNNY     41  12  30 NW15G30   30.05S
CROSBY         SUNNY     32  19  59 SW10      29.99F WCI  24
WATFORD CITY   SUNNY     37  16  42 W10       30.01S WCI  30
BISMARCK       SUNNY     39  14  36 W10       30.05R WCI  32
GRAND FORKS    SUNNY     25  10  53 S18G28    30.12F WCI  11
FARGO          SUNNY     25   7  46 S20       30.20F WCI  11
BUFFALO SD     SUNNY     45  10  24 NW24G32   30.00S
RAPID CITY     SUNNY     46  16  30 N21       30.09R
$$

REGIONAL REPORTS...WYOMING/IDAHO/WASHINGTON
CITY           SKY/WX    TMP DP  RH WIND       PRES   REMARKS
GILLETTE       SUNNY     43  18  37 NW12      30.12R
SHERIDAN       PTCLDY    41  21  45 SW7       30.14S
CODY           PTSUNNY   43  21  42 E10       30.15R
YELLOWSTONE LA PTSUNNY   32   7  35 VRB3      30.27S
SALMON         PTCLDY    45  10  24 CALM      30.26S
MULLAN PASS    PTCLDY    37  12  36 VRB5      30.24S WCI  33
SAND POINT     PTCLDY    50  18  28 SW10      30.27F
SPOKANE        PTSUNNY   52  19  27 W5        30.28S

$$




USA.gov is the U.S. government's official web portal to all federal, state and local government web resources and services.